カタログに戻る

SHIYAN 6

SY-6

運用中科学SSO
NORAD 43711·PAYLOAD·🇨🇳 China

打ち上げ Nov 19, 2018 から Jiuquan Satellite Launch Center

Loading…

次のパス (今後24時間)

TLE

最新Source: Space-Track

元期: Sep 14, 2026, 07:15 UTC

1 43711U 18094B   26257.30262282  .00003824  00000-0  13254-3 0  9990
2 43711  97.3598 270.6224 0012382 183.8514 176.2634 15.30372360435111

AllMySatでSHIYAN 6をリアルタイム追跡

Download on the App Store